Regional Weather Roundup
Issued by NWS

Home | Current Version | Previous Version | Graphics & Text | Print | Product List | Glossary On
Versions: 1 2 3 4 5 6 7 8 9 10 11 12 13 14 15 16 17 18 19 20 21 22 23 24 25 26 27 28 29 30 31 32 33 34 35 36 37 38 39 40 41 42 43 44 45 46 47 48 49 50
000
ASUS43 KIND 280259
RWRIN

WEATHER ROUNDUP FOR INDIANA
NATIONAL WEATHER SERVICE INDIANAPOLIS IN
1100 PM EDT MON MAR 27 2017

NOTE: "FAIR" INDICATES FEW OR NO CLOUDS BELOW 12,000 FEET WITH NO
SIGNIFICANT WEATHER AND/OR OBSTRUCTIONS TO VISIBILITY.

* - STATION DOES NOT REPORT WEATHER SUCH AS PRECIPITATION OR FOG.

+ - STATION NOT QUALITY CONTROLLED BY THE NATIONAL WEATHER SERVICE.
    USE DATA WITH CAUTION...ESPECIALLY DEWPOINT AND RELATIVE
    HUMIDITY OBSERVATIONS.

INZ001>003-010>013-019-020-280400-
NORTHWEST INDIANA

CITY           SKY/WX    TMP DP  RH WIND       PRES   REMARKS
GARY /AIRPORT/ CLOUDY    41  37  87 N7        29.98R
KNOX *+        CLOUDY    46  36  66 N8        29.93R
MONTICELLO +   DRIZZLE   53  51  95 N12       29.89R

$$

LMZ046-743>745-280400-
SOUTHERN LAKE MICHIGAN

STATION/POSITION TIME  TEMP    WIND        PRES    WAVE
                       AIR SEA DIR/SP/G            HT
                 (UTC) (F)     (DEG/KT/KT) (MB)    (FT)
BURNS HARBOR     0240   39      30/  7/  9 1015.2R
MICHIGAN CITY    0230   38      20/ 13/ 15   N/A

$$

INZ004-005-014>016-021>024-280400-
NORTH CENTRAL INDIANA

CITY           SKY/WX    TMP DP  RH WIND       PRES   REMARKS
GOSHEN         CLOUDY    52  47  83 N8        29.91S
SOUTH BEND     CLOUDY    46  42  86 N7        29.94R

$$

INZ006>009-017-018-025>027-280400-
NORTHEAST INDIANA

CITY           SKY/WX    TMP DP  RH WIND       PRES   REMARKS
ANGOLA *+      CLOUDY    52  39  62 N3        29.91S
FORT WAYNE     CLOUDY    56  50  80 NE6       29.89F
KENDALLVILLE + CLOUDY    52  50  92 N6        29.91F

$$

INZ028-029-035-036-043>045-051>053-280400-
WEST CENTRAL INDIANA

CITY           SKY/WX    TMP DP  RH WIND       PRES   REMARKS
CRAWFORDSVL +  DRIZZLE   53  53 100 N8        29.86R
LAFAYETTE      LGT RAIN  54  54 100 N12       29.88R FOG
TERRE HAUTE    LGT RAIN  57  53  86 N7        29.84R

$$

INZ030>032-037>040-046>048-054>057-064-065-280400-
CENTRAL INDIANA

CITY           SKY/WX    TMP DP  RH WIND       PRES   REMARKS
INDIANAPOLIS   LGT RAIN  56  54  93 NE8       29.83R
-EAGLE CREEK   LGT RAIN  57  54  89 NE6       29.83S
KOKOMO +       LGT RAIN  55  53  93 NE12      29.87S
SHELBYVILLE    LGT RAIN  58  54  86 W3        29.83R

$$

INZ033-034-041-042-049-050-058-059-280400-
EAST CENTRAL INDIANA

CITY           SKY/WX    TMP DP  RH WIND       PRES   REMARKS
MUNCIE         RAIN      57  54  89 NE7       29.85S FOG
RICHMOND +     LGT RAIN  54  54 100 SE10      29.84F

$$

INZ060-061-067>069-081>083-085>088-280400-
SOUTHWEST INDIANA

CITY           SKY/WX    TMP DP  RH WIND       PRES   REMARKS
EVANSVILLE     CLOUDY    56  54  93 SW6       29.85R
HUNTINGBURG *+ CLOUDY    54  54 100 S5        29.85R

$$

INZ062-063-066-070>080-084-089>092-280400-
SOUTH CENTRAL AND SOUTHEAST INDIANA

CITY           SKY/WX    TMP DP  RH WIND       PRES   REMARKS
BLOOMINGTON    RAIN      56  54  93 S3        29.84R FOG
MADISON *+     MOCLDY    55  54  94 S3        29.87R
SEYMOUR +      CLOUDY    55  54  94 CALM      29.85R

$$




USA.gov is the U.S. government's official web portal to all federal, state and local government web resources and services.